Location: ??????
(55.6500°N, 37.8000°E)
Time: 12:20:59
(UTC+00:00)

Cosmos 2026 Rocket - Pass Details

Date: 14 April 2024
Orbit: 938 x 1000 km, 82.9° (Epoch: 18 May)

Event Time Altitude Azimuth Distance (km) Brightness Sun altitude
Exits shadow 00:49:25 - 187° (S) 3,102 6.2 -12.7°
Reaches altitude 10° 00:50:23 10° 187° (S) 2,738 5.9 -12.6°
Maximum altitude 00:56:42 87° 101° (E) 1,004 4.1 -11.9°
Drops below altitude 10° 01:03:07 10° 12° (NNE) 2,783 7.1 -11.2°
Sets 01:05:40 0° 12° (NNE) 3,739 7.9 -10.9°
